Weather History for KCDC - October, 2012

Change the Weather History Date:

Monday, October 8, 2012

  Actual Average Record
Temperature  
Mean Temperature 54 °F 53 °F  
Max Temperature 74 °F 69 °F 87 °F (1996)
Min Temperature 33 °F 36 °F 23 °F (1970)
Degree Days  
Heating Degree Days 11 12  
Month to date heating degree days 56 88  
Since 1 July heating degree days 128 231  
Cooling Degree Days 0 0  
Month to date cooling degree days 0 0  
Year to date cooling degree days 715 588  
Growing Degree Days 5 (Base 50)    
Moisture  
Dew Point 22 °F    
Average Humidity 32    
Maximum Humidity 48    
Minimum Humidity 16    
Precipitation  
Precipitation 0.00 in 0.04 in 1.30 in (1985)
Month to date precipitation 0.00 0.30  
Year to date precipitation 9.86 8.50  
Sea Level Pressure  
Sea Level Pressure 29.96 in    
Wind  
Wind Speed 5 mph (SSW)    
Max Wind Speed 17 mph    
Max Gust Speed 24 mph    
Visibility 10 miles    
Events      
T = Trace of Precipitation, MM = Missing Value Source: NWS Daily Summary

Daily Weather History Graph

Daily Weather History Graph

Search for Another Location

Airport or City:

Trip Planner

Search our weather history database for the weather conditions in past years. The results will help you decide how hot, cold, wet, or windy it might be!

Date:

Astronomy

Oct. 08, 2012 Rise Set
Actual Time 7:34 AM MDT 7:04 PM MDT
Civil Twilight 7:08 AM MDT 7:30 PM MDT
Nautical Twilight 6:38 AM MDT 8:00 PM MDT
Astronomical Twilight 6:07 AM MDT 8:31 PM MDT
Moon 12:25 AM MDT (10/8) 2:49 PM MDT (10/8)
Length of Visible Light 12h 21m
Length of Day
11h 29m
Last Quarter, 46% of the Moon is Illuminated
Oct 8
Last Quarter
Oct 15
New
Oct 21
First Quarter
Oct 29
Full
Nov 6
Last Quarter

Hourly Weather History & Observations

Time (MDT) Temp. Windchill Dew Point Humidity Pressure Visibility Wind Dir Wind Speed Gust Speed Precip Events Conditions
12:53 AM 42.1 °F 40.2 °F 14.0 °F 32% 30.00 in 10.0 mi North 3.5 mph - N/A   Clear
1:53 AM 42.1 °F 39.2 °F 16.0 °F 35% 30.00 in 10.0 mi NE 4.6 mph - N/A   Clear
2:53 AM 37.9 °F - 16.0 °F 41% 30.00 in 10.0 mi Calm Calm - N/A   Clear
3:53 AM 37.9 °F 35.5 °F 17.1 °F 43% 29.99 in 10.0 mi SW 3.5 mph - N/A   Clear
4:53 AM 39.9 °F 37.8 °F 15.1 °F 36% 29.97 in 10.0 mi East 3.5 mph - N/A   Clear
5:53 AM 37.9 °F 35.5 °F 18.0 °F 45% 29.99 in 10.0 mi NE 3.5 mph - N/A   Clear
6:53 AM 37.9 °F - 18.0 °F 45% 30.01 in 10.0 mi Calm Calm - N/A   Clear
7:53 AM 37.0 °F - 17.1 °F 44% 30.04 in 10.0 mi Calm Calm - N/A   Clear
8:53 AM 48.0 °F - 16.0 °F 28% 30.02 in 10.0 mi WSW 3.5 mph - N/A   Clear
9:53 AM 50.0 °F - 18.0 °F 28% 30.05 in 10.0 mi Calm Calm - N/A   Clear
10:53 AM 59.0 °F - 19.9 °F 22% 30.01 in 10.0 mi NNW 3.5 mph - N/A   Clear
11:53 AM 66.0 °F - 19.9 °F 17% 29.96 in 10.0 mi Variable 4.6 mph - N/A   Clear
12:53 PM 71.1 °F - 23.0 °F 16% 29.94 in 10.0 mi SSW 11.5 mph 17.3 mph N/A   Clear
1:53 PM 72.0 °F - 24.1 °F 17% 29.91 in 10.0 mi SW 13.8 mph 21.9 mph N/A   Clear
2:53 PM 71.1 °F - 25.0 °F 18% 29.91 in 10.0 mi SSW 16.1 mph 20.7 mph N/A   Clear
3:53 PM 73.9 °F - 26.1 °F 17% 29.90 in 10.0 mi SW 11.5 mph 19.6 mph N/A   Clear
4:53 PM 69.1 °F - 27.0 °F 21% 29.90 in 10.0 mi South 10.4 mph 19.6 mph N/A   Clear
5:53 PM 69.1 °F - 27.0 °F 21% 29.91 in 10.0 mi SSW 10.4 mph 21.9 mph N/A   Clear
6:53 PM 66.0 °F - 26.1 °F 22% 29.92 in 10.0 mi SW 8.1 mph - N/A   Clear
8:53 PM 55.0 °F - 28.0 °F 35% 29.94 in 10.0 mi South 6.9 mph - N/A   Clear
9:53 PM 54.0 °F - 28.0 °F 37% 29.95 in 10.0 mi SSE 6.9 mph - N/A   Clear
10:53 PM 55.9 °F - 28.0 °F 34% 29.92 in 10.0 mi SE 8.1 mph - N/A   Clear
11:53 PM 55.0 °F - 28.0 °F 35% 29.90 in 10.0 mi SSE 6.9 mph - N/A   Clear